Regional Weather Roundup
Issued by NWS

Home | Current Version | Previous Version | Graphics & Text | Print | Product List | Glossary On
Versions: 1 2 3 4 5 6 7 8 9 10 11 12 13 14 15 16 17 18 19 20 21 22 23 24 25 26 27 28 29 30 31 32 33 34 35 36 37 38 39 40 41 42 43 44 45 46 47 48 49 50
000
ASUS43 KOAX 301410
RWRNE

WEATHER ROUNDUP FOR NEBRASKA
NATIONAL WEATHER SERVICE OMAHA NE
800 AM CST FRI JAN 30 2015

NOTES: SATELLITE DATA IS BEING USED TO AUGMENT CLOUD COVER ABOVE
       12000 FEET.
       "FAIR" INDICATES FEW OR NO CLOUDS BELOW 12,000 FEET WITH NO
       SIGNIFICANT WEATHER AND/OR OBSTRUCTIONS TO VISIBILITY.

  * THESE STATIONS DO NOT REPORT WEATHER SUCH AS RAIN...SNOW OR FOG.

NEZ001>004-019>022-054>056-301500-
NEBRASKA PANHANDLE

CITY           SKY/WX    TMP DP  RH WIND       PRES   REMARKS
SCOTTSBLUFF    MOCLDY    27  23  85 CALM      30.22F
ALLIANCE       CLOUDY    25  21  85 S3        30.23S
CHADRON        CLOUDY    32  20  61 W8        30.21F WCI  25
KIMBALL        MOCLDY    26  23  89 W3        30.19F
SIDNEY         MOCLDY    28  21  75 S3        30.23F
$$

NEZ057>060-069>072-079>082-301500-
SOUTHWEST NEBRASKA

CITY           SKY/WX    TMP DP  RH WIND       PRES   REMARKS
NORTH PLATTE   MOCLDY    21  17  84 E5        30.34F WCI  15
IMPERIAL       CLOUDY    26  20  77 E5        30.30F WCI  20
LEXINGTON      MOCLDY    25  21  85 SE5       30.40S WCI  19
MCCOOK         CLOUDY    23  18  81 E3        30.37F
OGALLALA       MOCLDY    28  23  79 CALM      30.30F
$$

NEZ005>010-023>029-035>040-094-301500-
NORTH CENTRAL NEBRASKA

CITY           SKY/WX    TMP DP  RH WIND       PRES   REMARKS
VALENTINE      MOCLDY    23  18  81 CALM      30.28F
AINSWORTH      MOCLDY    26  21  80 S13       30.30F WCI  15
BROKEN BOW     MOCLDY    23  19  85 S7        30.37F WCI  15
O`NEILL        PTCLDY    22  20  94 S7        30.40S WCI  13
ORD              N/A     21  18  88 SE7       30.41F WCI  12
THEDFORD       MOCLDY    32  24  71 S8        30.31F WCI  25
$$

NEZ041-046>049-061>064-073>077-083>087-301500-
SOUTH CENTRAL NEBRASKA

CITY           SKY/WX    TMP DP  RH WIND       PRES   REMARKS
GRAND ISLAND   FAIR      21  19  92 S9        30.47S WCI  11
AURORA         PTCLDY    18  17  94 S7        30.47S WCI   9
HASTINGS       MOCLDY    20  17  88 S9        30.45S WCI   9
HEBRON         PTCLDY    14  10  85 CALM      30.51S
HOLDREGE       MOCLDY    24  20  87 S8        30.41F WCI  15
KEARNEY *      MOCLDY    19  18  93 S3        30.43S
YORK           FOG       16  16 100 S3        30.48F VSB 1/2
$$

NEZ011>018-030>034-042>045-301500-
NORTHEAST NEBRASKA

CITY           SKY/WX    TMP DP  RH WIND       PRES   REMARKS
NORFOLK        PTCLDY    20  17  88 S5        30.46F WCI  13
ALBION         PTCLDY    16  13  88 CALM      30.45F
BLAIR          PTCLDY    18  14  84 CALM      30.51R
COLUMBUS *     CLEAR     12   7  79 CALM      30.49F
FREMONT        CLEAR     16  15  93 CALM      30.51S
TEKAMAH        PTCLDY    15  11  83 S3        30.53S
WAYNE          CLEAR     16  13  91 CALM      30.48F
$$

NEZ050>053-065>068-078-088>093-301500-
SOUTHEAST NEBRASKA

CITY           SKY/WX    TMP DP  RH WIND       PRES   REMARKS
LINCOLN        PTCLDY    14  11  87 CALM      30.53F
OMAHA EPPLEY   PTCLDY    18  14  84 SE6       30.54R WCI  10
BEATRICE       PTCLDY    13  11  90 CALM      30.52F
FALLS CITY     CLEAR     13  10  88 NW3       30.55R
NEBRASKA CITY  PTCLDY    20  19  96 CALM      30.53S FOG
PLATTSMOUTH    PTCLDY    18  16  90 CALM      30.53S
$$

NEZ044-045-051>053-067-301500-
OMAHA AREA

CITY           SKY/WX    TMP DP  RH WIND       PRES   REMARKS
OMAHA EPPLEY   PTCLDY    18  14  84 SE6       30.54R WCI  10
BLAIR          PTCLDY    18  14  84 CALM      30.51R
FREMONT        CLEAR     16  15  93 CALM      30.51S
MILLARD        CLEAR     17  15  89 CALM      30.54R
OFFUTT AFB     CLEAR     12  10  90 CALM      30.53S
PLATTSMOUTH    PTCLDY    18  16  90 CALM      30.53S
WAHOO          FAIR      11   8  86 CALM      30.52S FOG
$$



USA.gov is the U.S. government's official web portal to all federal, state and local government web resources and services.